FIN57T EFHK-LGSR

Flight info

Callsign FIN57T
Flight time N/A
Altitude 32000
Route KOIVU Y123 LARTI DCT LUTAL P870 BERIL/N0442F330 DCT SUWGI/N0441F320 DCT UNPEG DCT XESNA DCT GERVI M857 EGLON/N0448F340 M857 VENES/N0446F330 DCT ROBTU DCT KENIN DCT BADOR DCT RUPUG DCT SODGO DCT OVDOT DCT LOMOS DCT WAK DCT NIKTI DCT KOROS/N0443F340 DCT NEVRA/N0442F350 UT514 PEXAN
Aircraft A321/M-SDE3FGHIRWY/LB1

Departure

Time 2026-04-21 11:39
Airport Helsinki Vantaa Airport (EFHK)

Arrival

Time N/A
Airport Santorini International Airport (LGSR)
Time Latitude Longitude Altitude Speed Heading
2026-04-21 11:21 60.31911 24.96610 166 ft 0 kts 137°
2026-04-21 11:24 60.31915 24.96602 166 ft 4 kts 137°
2026-04-21 11:24 60.31935 24.96566 166 ft 4 kts 139°
2026-04-21 11:24 60.31950 24.96537 166 ft 4 kts 83°
2026-04-21 11:24 60.31939 24.96502 166 ft 2 kts 47°
2026-04-21 11:25 60.31924 24.96468 166 ft 4 kts 47°
2026-04-21 11:25 60.31915 24.96446 166 ft 2 kts 47°
2026-04-21 11:28 60.31915 24.96447 166 ft 0 kts 47°
2026-04-21 11:29 60.31916 24.96450 166 ft 1 kts 47°
2026-04-21 11:29 60.31920 24.96459 166 ft 1 kts 47°
2026-04-21 11:29 60.31926 24.96472 166 ft 1 kts 47°
2026-04-21 11:29 60.31934 24.96490 166 ft 2 kts 47°
2026-04-21 11:30 60.31945 24.96512 166 ft 2 kts 47°
2026-04-21 11:30 60.31963 24.96555 166 ft 9 kts 51°
2026-04-21 11:30 60.32012 24.96671 166 ft 11 kts 47°
2026-04-21 11:30 60.32067 24.96790 166 ft 12 kts 47°
2026-04-21 11:31 60.32132 24.96859 166 ft 11 kts 347°
2026-04-21 11:31 60.32203 24.96783 166 ft 12 kts 329°
2026-04-21 11:31 60.32278 24.96696 167 ft 14 kts 330°
2026-04-21 11:31 60.32378 24.96580 174 ft 19 kts 330°
2026-04-21 11:32 60.32514 24.96421 174 ft 27 kts 330°
2026-04-21 11:32 60.32678 24.96230 172 ft 27 kts 330°
2026-04-21 11:32 60.32835 24.96048 174 ft 25 kts 330°
2026-04-21 11:32 60.32881 24.95993 174 ft 5 kts 330°
2026-04-21 11:33 60.32908 24.95963 175 ft 3 kts 330°
2026-04-21 11:33 60.32922 24.95946 176 ft 1 kts 330°
2026-04-21 11:33 60.32928 24.95940 176 ft 1 kts 330°
2026-04-21 11:33 60.32929 24.95938 176 ft 0 kts 330°
2026-04-21 11:34 60.32930 24.95938 176 ft 0 kts 330°
2026-04-21 11:36 60.32958 24.95905 177 ft 8 kts 330°
2026-04-21 11:36 60.32999 24.95857 179 ft 12 kts 329°
2026-04-21 11:36 60.33089 24.95737 180 ft 20 kts 320°
2026-04-21 11:37 60.33192 24.95544 182 ft 16 kts 308°
2026-04-21 11:37 60.33186 24.95339 180 ft 17 kts 227°
2026-04-21 11:37 60.33108 24.95060 178 ft 18 kts 267°
2026-04-21 11:37 60.33112 24.94896 179 ft 17 kts 273°
2026-04-21 11:38 60.33117 24.94686 183 ft 13 kts 272°
2026-04-21 11:38 60.33120 24.94531 188 ft 9 kts 272°
2026-04-21 11:38 60.33084 24.94325 192 ft 27 kts 233°
2026-04-21 11:38 60.32814 24.93720 181 ft 93 kts 227°
2026-04-21 11:39 60.32235 24.92450 166 ft 152 kts 227°
2026-04-21 11:39 60.31418 24.90609 297 ft 187 kts 229°
2026-04-21 11:39 60.30563 24.88723 1123 ft 181 kts 237°
2026-04-21 11:39 60.29998 24.86435 1782 ft 181 kts 260°
2026-04-21 11:40 60.29833 24.83876 2244 ft 190 kts 278°
2026-04-21 11:40 60.30088 24.81171 2461 ft 204 kts 290°
2026-04-21 11:40 60.30394 24.78245 2633 ft 225 kts 274°
2026-04-21 11:40 60.29998 24.74984 2760 ft 255 kts 250°
2026-04-21 11:41 60.29292 24.71600 3281 ft 265 kts 249°
2026-04-21 11:41 60.28551 24.68192 4063 ft 267 kts 249°
2026-04-21 11:41 60.27807 24.64776 4759 ft 270 kts 249°
2026-04-21 11:41 60.27055 24.61267 5427 ft 274 kts 249°
2026-04-21 11:42 60.26308 24.57713 6062 ft 277 kts 250°
2026-04-21 11:42 60.25558 24.54117 6674 ft 282 kts 248°
2026-04-21 11:42 60.24516 24.50712 7238 ft 290 kts 231°
2026-04-21 11:42 60.23012 24.47982 7809 ft 296 kts 214°
2026-04-21 11:43 60.21147 24.46169 8373 ft 300 kts 198°
2026-04-21 11:43 60.19156 24.44836 8972 ft 304 kts 199°
2026-04-21 11:43 60.17141 24.43479 9558 ft 307 kts 199°
2026-04-21 11:43 60.15107 24.42095 10137 ft 311 kts 199°
2026-04-21 11:44 60.12992 24.41066 10552 ft 319 kts 186°
2026-04-21 11:44 60.10706 24.41006 10679 ft 336 kts 171°
2026-04-21 11:44 60.08388 24.42117 10808 ft 350 kts 156°
2026-04-21 11:44 60.06154 24.44292 10950 ft 365 kts 149°
2026-04-21 11:45 60.03888 24.46676 11337 ft 372 kts 149°
2026-04-21 11:45 60.01570 24.49086 11847 ft 376 kts 149°
2026-04-21 11:45 59.99236 24.51488 12366 ft 380 kts 149°
2026-04-21 11:45 59.96870 24.53906 12937 ft 383 kts 149°
2026-04-21 11:46 59.94492 24.56327 13490 ft 386 kts 149°
2026-04-21 11:46 59.92087 24.58770 14017 ft 389 kts 149°
2026-04-21 11:46 59.89696 24.61201 14478 ft 392 kts 149°
2026-04-21 11:46 59.87148 24.63390 14941 ft 398 kts 159°
2026-04-21 11:47 59.84459 24.64602 15437 ft 404 kts 171°
2026-04-21 11:47 59.81635 24.64777 15910 ft 409 kts 183°
2026-04-21 11:47 59.78813 24.63881 16397 ft 413 kts 193°
2026-04-21 11:47 59.76007 24.62538 16888 ft 416 kts 193°
2026-04-21 11:48 59.73178 24.61197 17365 ft 419 kts 192°
2026-04-21 11:48 59.70339 24.59864 17848 ft 422 kts 192°
2026-04-21 11:48 59.67476 24.58525 18330 ft 424 kts 192°
2026-04-21 11:48 59.64592 24.57233 18761 ft 427 kts 191°
2026-04-21 11:49 59.61662 24.56031 19178 ft 430 kts 190°
2026-04-21 11:49 59.58721 24.54889 19597 ft 432 kts 189°
2026-04-21 11:49 59.55758 24.53765 20025 ft 435 kts 189°
2026-04-21 11:49 59.52779 24.52637 20442 ft 437 kts 189°
2026-04-21 11:50 59.49789 24.51499 20852 ft 439 kts 190°
2026-04-21 11:50 59.46773 24.50339 21243 ft 442 kts 190°
2026-04-21 11:50 59.43747 24.49161 21643 ft 444 kts 190°
2026-04-21 11:50 59.40713 24.47967 22024 ft 447 kts 190°
2026-04-21 11:51 59.37648 24.46759 22402 ft 449 kts 190°
2026-04-21 11:51 59.34574 24.45550 22766 ft 451 kts 190°
2026-04-21 11:51 59.31489 24.44341 23130 ft 454 kts 190°
2026-04-21 11:51 59.28387 24.43127 23490 ft 456 kts 190°
2026-04-21 11:52 59.25263 24.41909 23828 ft 458 kts 190°
2026-04-21 11:52 59.22128 24.40696 24117 ft 460 kts 190°
2026-04-21 11:52 59.18978 24.39482 24420 ft 462 kts 190°
2026-04-21 11:52 59.15855 24.38278 24711 ft 464 kts 190°
2026-04-21 11:53 59.12684 24.37053 25050 ft 466 kts 190°
2026-04-21 11:53 59.09493 24.35820 25279 ft 470 kts 190°
2026-04-21 11:53 59.06267 24.34579 25539 ft 472 kts 189°
2026-04-21 11:53 59.03044 24.33350 25819 ft 474 kts 189°
2026-04-21 11:54 58.99799 24.32117 26120 ft 476 kts 189°
2026-04-21 11:54 58.96539 24.30878 26407 ft 477 kts 189°
2026-04-21 11:54 58.93278 24.29637 26688 ft 479 kts 189°
2026-04-21 11:54 58.89998 24.28387 26941 ft 481 kts 189°
2026-04-21 11:55 58.86704 24.27132 27204 ft 483 kts 189°
2026-04-21 11:55 58.83404 24.25878 27471 ft 484 kts 189°
2026-04-21 11:55 58.80096 24.24624 27741 ft 486 kts 189°
2026-04-21 11:55 58.76771 24.23366 27982 ft 488 kts 189°
2026-04-21 11:56 58.73430 24.22110 28246 ft 490 kts 189°
2026-04-21 11:56 58.70071 24.20854 28509 ft 491 kts 189°
2026-04-21 11:56 58.66710 24.19596 28775 ft 493 kts 189°
2026-04-21 11:56 58.63343 24.18336 29073 ft 494 kts 189°
2026-04-21 11:57 58.59972 24.17076 29454 ft 493 kts 189°
2026-04-21 11:57 58.56615 24.15826 29836 ft 492 kts 189°
2026-04-21 11:57 58.53251 24.14576 30206 ft 491 kts 189°
2026-04-21 11:57 58.49898 24.13330 30527 ft 490 kts 189°
2026-04-21 11:58 58.46564 24.12094 30814 ft 490 kts 188°
2026-04-21 11:58 58.43210 24.10855 31096 ft 489 kts 188°
2026-04-21 11:58 58.39866 24.09623 31371 ft 489 kts 188°
2026-04-21 11:58 58.36528 24.08396 31647 ft 489 kts 188°
2026-04-21 11:59 58.33203 24.07176 31930 ft 488 kts 188°
2026-04-21 11:59 58.29852 24.05948 32152 ft 489 kts 188°
2026-04-21 11:59 58.23203 24.03502 32222 ft 485 kts 188°
2026-04-21 12:00 58.16626 24.01101 32228 ft 485 kts 188°
2026-04-21 12:00 58.09995 23.98696 32231 ft 484 kts 188°
2026-04-21 12:01 58.03374 23.96309 32231 ft 484 kts 188°
2026-04-21 12:01 57.96752 23.93927 32227 ft 484 kts 188°
2026-04-21 12:02 57.86816 23.90373 32243 ft 484 kts 187°
2026-04-21 12:03 57.80182 23.88185 32244 ft 484 kts 186°
2026-04-21 12:03 57.73533 23.86052 32249 ft 484 kts 186°
2026-04-21 12:04 57.66904 23.83888 32247 ft 484 kts 187°
2026-04-21 12:04 57.60304 23.81714 32252 ft 484 kts 187°
2026-04-21 12:05 57.53635 23.79525 32245 ft 484 kts 187°
2026-04-21 12:05 57.47033 23.77384 32242 ft 484 kts 186°
2026-04-21 12:06 57.40395 23.75265 32239 ft 484 kts 186°
2026-04-21 12:06 57.33769 23.73153 32257 ft 484 kts 186°
2026-04-21 12:07 57.27121 23.71007 32255 ft 484 kts 186°
2026-04-21 12:07 57.20481 23.68863 32249 ft 484 kts 186°
2026-04-21 12:08 57.13829 23.66754 32251 ft 484 kts 186°
2026-04-21 12:08 57.07183 23.64652 32252 ft 485 kts 186°
2026-04-21 12:09 57.00537 23.62549 32262 ft 485 kts 186°
2026-04-21 12:09 56.93897 23.60466 32242 ft 484 kts 186°
2026-04-21 12:10 56.87289 23.58381 32243 ft 484 kts 186°
2026-04-21 12:10 56.80646 23.56307 32237 ft 484 kts 186°
2026-04-21 12:11 56.74013 23.54253 32241 ft 484 kts 186°
2026-04-21 12:11 56.67375 23.52196 32236 ft 483 kts 186°
2026-04-21 12:12 56.60755 23.50146 32238 ft 483 kts 186°
2026-04-21 12:12 56.54124 23.48103 32233 ft 483 kts 186°
2026-04-21 12:13 56.47502 23.46058 32236 ft 483 kts 186°
2026-04-21 12:13 56.40874 23.44029 32229 ft 483 kts 186°
2026-04-21 12:14 56.34245 23.42046 32223 ft 482 kts 185°
2026-04-21 12:14 56.27640 23.40394 32226 ft 482 kts 184°
2026-04-21 12:15 56.20992 23.38902 32229 ft 481 kts 184°
2026-04-21 12:15 56.14342 23.37356 32231 ft 481 kts 184°
2026-04-21 12:16 56.07693 23.35755 32264 ft 481 kts 184°
2026-04-21 12:16 56.01064 23.34155 32247 ft 481 kts 184°
2026-04-21 12:17 55.94467 23.32567 32239 ft 481 kts 184°
2026-04-21 12:17 55.87802 23.30972 32240 ft 480 kts 184°
2026-04-21 12:18 55.81215 23.29424 32234 ft 480 kts 184°
2026-04-21 12:18 55.74594 23.27876 32229 ft 480 kts 184°
2026-04-21 12:19 55.67975 23.26316 32240 ft 480 kts 185°
2026-04-21 12:19 55.61347 23.24763 32222 ft 480 kts 184°
2026-04-21 12:20 55.54731 23.23220 32211 ft 479 kts 184°
2026-04-21 12:20 55.48114 23.21676 32204 ft 479 kts 184°
2026-04-21 12:21 55.41494 23.20142 32211 ft 480 kts 184°
2026-04-21 12:21 55.34879 23.18612 32206 ft 480 kts 184°
2026-04-21 12:22 55.28258 23.17086 32206 ft 480 kts 184°
2026-04-21 12:22 55.21673 23.15571 32203 ft 480 kts 184°
2026-04-21 12:23 55.15057 23.14049 32217 ft 479 kts 185°
2026-04-21 12:23 55.09519 23.12794 32212 ft 478 kts 185°
2026-04-21 12:24 55.01863 23.11063 32207 ft 478 kts 185°
2026-04-21 12:24 54.96388 23.09822 32201 ft 478 kts 185°
2026-04-21 12:25 54.89788 23.08334 32198 ft 477 kts 185°
2026-04-21 12:25 54.83188 23.06853 32203 ft 477 kts 185°
2026-04-21 12:26 54.76608 23.05374 32201 ft 477 kts 185°
2026-04-21 12:26 54.70033 23.03906 32196 ft 476 kts 185°
2026-04-21 12:27 54.63449 23.02435 32192 ft 476 kts 185°
2026-04-21 12:27 54.56883 23.00960 32195 ft 476 kts 185°
2026-04-21 12:28 54.50342 22.99498 32195 ft 476 kts 185°
2026-04-21 12:28 54.43770 22.98047 32192 ft 476 kts 185°
2026-04-21 12:29 54.37208 22.96607 32185 ft 475 kts 185°
2026-04-21 12:29 54.30636 22.95179 32207 ft 475 kts 185°
2026-04-21 12:30 54.24087 22.93751 32195 ft 474 kts 185°
2026-04-21 12:30 54.17541 22.92319 32194 ft 474 kts 185°
2026-04-21 12:31 54.10998 22.90902 32187 ft 474 kts 185°
2026-04-21 12:31 54.04483 22.89103 32192 ft 475 kts 191°
2026-04-21 12:32 53.98032 22.86638 32185 ft 475 kts 191°
2026-04-21 12:32 53.91593 22.84170 32179 ft 474 kts 191°
2026-04-21 12:33 53.85148 22.81709 32172 ft 474 kts 191°
2026-04-21 12:33 53.78738 22.79302 32159 ft 474 kts 191°
2026-04-21 12:34 53.72299 22.76890 32173 ft 474 kts 191°
2026-04-21 12:34 53.65846 22.74462 32159 ft 474 kts 191°
2026-04-21 12:35 53.59413 22.72050 32152 ft 474 kts 191°
2026-04-21 12:35 53.52981 22.69650 32154 ft 474 kts 191°
2026-04-21 12:36 53.46548 22.67252 32160 ft 474 kts 191°
2026-04-21 12:36 53.40101 22.64863 32160 ft 474 kts 190°
2026-04-21 12:37 53.33666 22.62492 32147 ft 474 kts 190°
2026-04-21 12:37 53.27235 22.60125 32174 ft 474 kts 190°
2026-04-21 12:38 53.20797 22.57758 32166 ft 474 kts 190°
2026-04-21 12:38 53.14350 22.55390 32155 ft 473 kts 190°
2026-04-21 12:39 53.07967 22.53054 32156 ft 473 kts 190°
2026-04-21 12:39 53.01503 22.50707 32147 ft 472 kts 189°
2026-04-21 12:40 52.95091 22.48387 32140 ft 472 kts 190°
2026-04-21 12:40 52.88712 22.46067 32133 ft 471 kts 190°
2026-04-21 12:41 52.82307 22.43753 32140 ft 471 kts 189°
2026-04-21 12:41 52.75901 22.41447 32134 ft 471 kts 189°
2026-04-21 12:42 52.69482 22.39140 32139 ft 472 kts 189°
2026-04-21 12:42 52.63071 22.36859 32139 ft 472 kts 189°
2026-04-21 12:43 52.56644 22.34587 32141 ft 472 kts 189°
2026-04-21 12:43 52.50222 22.32315 32145 ft 472 kts 189°
2026-04-21 12:44 52.43806 22.30034 32139 ft 471 kts 189°
2026-04-21 12:44 52.37398 22.27749 32137 ft 471 kts 189°
2026-04-21 12:45 52.31036 22.25504 32152 ft 471 kts 189°
2026-04-21 12:45 52.24635 22.23265 32147 ft 470 kts 189°
2026-04-21 12:46 52.18234 22.21031 32162 ft 470 kts 189°
2026-04-21 12:46 52.11832 22.18865 32153 ft 469 kts 188°
2026-04-21 12:47 52.05416 22.16981 32144 ft 468 kts 187°
2026-04-21 12:47 51.98988 22.15179 32142 ft 468 kts 187°
2026-04-21 12:48 51.92584 22.13326 32141 ft 467 kts 187°
2026-04-21 12:48 51.86188 22.11431 32144 ft 467 kts 187°
2026-04-21 12:49 51.79812 22.09541 32138 ft 466 kts 187°
2026-04-21 12:49 51.73415 22.07665 32136 ft 466 kts 187°
2026-04-21 12:50 51.67046 22.05821 32138 ft 466 kts 187°
2026-04-21 12:50 51.60701 22.03991 32144 ft 465 kts 187°
2026-04-21 12:51 51.54336 22.02149 32138 ft 465 kts 187°
2026-04-21 12:51 51.47949 22.00298 32135 ft 465 kts 187°
2026-04-21 12:52 51.41599 21.98451 32127 ft 464 kts 187°
2026-04-21 12:52 51.35231 21.96655 32126 ft 465 kts 187°
2026-04-21 12:53 51.28856 21.94899 32127 ft 464 kts 187°
2026-04-21 12:53 51.22489 21.93152 32151 ft 465 kts 187°
2026-04-21 12:54 51.16116 21.91403 32141 ft 464 kts 186°
2026-04-21 12:54 51.09703 21.90831 32134 ft 461 kts 179°
2026-04-21 12:55 51.03309 21.90551 32129 ft 460 kts 179°
2026-04-21 12:55 50.96895 21.90264 32123 ft 460 kts 179°
2026-04-21 12:56 50.90493 21.89979 32123 ft 460 kts 179°
2026-04-21 12:56 50.84143 21.89701 32130 ft 459 kts 179°
2026-04-21 12:57 50.77751 21.89429 32124 ft 459 kts 179°
2026-04-21 12:57 50.71371 21.89151 32130 ft 459 kts 179°
2026-04-21 12:58 50.64992 21.88863 32123 ft 458 kts 180°
2026-04-21 12:58 50.58616 21.88572 32122 ft 457 kts 180°
2026-04-21 12:59 50.52264 21.88304 32131 ft 457 kts 180°
2026-04-21 12:59 50.45881 21.88039 32121 ft 458 kts 180°
2026-04-21 13:00 50.39513 21.87770 32113 ft 457 kts 180°
2026-04-21 13:00 50.33145 21.87493 32114 ft 458 kts 181°
2026-04-21 13:01 50.26821 21.87214 32121 ft 458 kts 181°
2026-04-21 13:01 50.20455 21.86940 32121 ft 458 kts 180°
2026-04-21 13:02 50.14081 21.86677 32122 ft 458 kts 181°
2026-04-21 13:02 50.04540 21.86273 32122 ft 458 kts 181°
2026-04-21 13:03 49.98162 21.86002 32119 ft 458 kts 181°
2026-04-21 13:03 49.91797 21.85730 32102 ft 458 kts 182°
2026-04-21 13:04 49.85441 21.85457 32111 ft 458 kts 182°
2026-04-21 13:04 49.79075 21.85197 32102 ft 458 kts 182°
2026-04-21 13:05 49.72729 21.84931 32103 ft 459 kts 182°
2026-04-21 13:05 49.66314 21.84657 32108 ft 458 kts 182°
2026-04-21 13:06 49.59973 21.84398 32098 ft 458 kts 182°
2026-04-21 13:06 49.53546 21.84133 32089 ft 459 kts 182°
2026-04-21 13:07 49.47204 21.83870 32088 ft 459 kts 182°
2026-04-21 13:07 49.40813 21.83607 32100 ft 459 kts 182°
2026-04-21 13:08 49.34435 21.83344 32091 ft 459 kts 183°
2026-04-21 13:08 49.28045 21.83074 32110 ft 459 kts 183°
2026-04-21 13:09 49.21673 21.82812 32095 ft 458 kts 184°
2026-04-21 13:09 49.15300 21.82553 32098 ft 458 kts 183°
2026-04-21 13:10 49.08927 21.82293 32098 ft 457 kts 183°
2026-04-21 13:10 49.02564 21.82036 32088 ft 457 kts 183°
2026-04-21 13:11 48.96256 21.81776 32084 ft 457 kts 184°
2026-04-21 13:11 48.89896 21.81568 32082 ft 458 kts 179°
2026-04-21 13:12 48.83564 21.82743 32079 ft 459 kts 173°
2026-04-21 13:12 48.78303 21.83869 32080 ft 459 kts 174°
2026-04-21 13:13 48.71973 21.85215 32070 ft 458 kts 174°
2026-04-21 13:13 48.65668 21.86541 32071 ft 458 kts 174°
2026-04-21 13:14 48.59351 21.87859 32067 ft 458 kts 174°
2026-04-21 13:14 48.53025 21.89194 32054 ft 458 kts 174°
2026-04-21 13:15 48.46748 21.90520 32062 ft 458 kts 174°
2026-04-21 13:15 48.40431 21.91840 32062 ft 458 kts 174°
2026-04-21 13:16 48.34104 21.93164 32063 ft 458 kts 174°
2026-04-21 13:16 48.27801 21.94608 32057 ft 459 kts 173°
2026-04-21 13:17 48.21484 21.96117 32054 ft 459 kts 173°
2026-04-21 13:17 48.15169 21.97603 32056 ft 459 kts 173°
2026-04-21 13:18 48.08839 21.99057 32058 ft 460 kts 173°
2026-04-21 13:18 48.02522 22.00507 32047 ft 460 kts 174°
2026-04-21 13:19 47.96200 22.01962 32050 ft 460 kts 174°
2026-04-21 13:19 47.89908 22.03404 32050 ft 460 kts 174°
2026-04-21 13:20 47.83579 22.04851 32052 ft 460 kts 174°
2026-04-21 13:20 47.77245 22.06293 32038 ft 460 kts 174°
2026-04-21 13:21 47.70921 22.07735 32038 ft 461 kts 174°
2026-04-21 13:21 47.64578 22.09175 32042 ft 461 kts 174°
2026-04-21 13:22 47.58228 22.10610 32045 ft 461 kts 174°
2026-04-21 13:22 47.51872 22.12041 32030 ft 461 kts 174°
2026-04-21 13:23 47.45531 22.13441 32037 ft 461 kts 174°
2026-04-21 13:23 47.39211 22.14819 32044 ft 462 kts 174°
2026-04-21 13:24 47.32855 22.16202 32025 ft 462 kts 175°
2026-04-21 13:24 47.26478 22.17593 32033 ft 463 kts 175°
2026-04-21 13:25 47.20101 22.18987 32041 ft 463 kts 175°
2026-04-21 13:25 47.13726 22.20375 32041 ft 463 kts 175°
2026-04-21 13:26 47.07339 22.21755 32027 ft 463 kts 175°
2026-04-21 13:26 47.00961 22.23137 32033 ft 464 kts 175°
2026-04-21 13:27 46.94566 22.24521 32046 ft 464 kts 175°
2026-04-21 13:27 46.88226 22.25962 32043 ft 465 kts 173°
2026-04-21 13:28 46.81869 22.27849 32028 ft 467 kts 171°
2026-04-21 13:28 46.75522 22.29918 32033 ft 467 kts 171°
2026-04-21 13:29 46.69173 22.31898 32040 ft 466 kts 172°
2026-04-21 13:29 46.62809 22.33788 32041 ft 466 kts 172°
2026-04-21 13:30 46.56451 22.35659 32040 ft 466 kts 173°
2026-04-21 13:30 46.50090 22.37541 32034 ft 466 kts 173°
2026-04-21 13:31 46.43725 22.39438 32038 ft 467 kts 173°
2026-04-21 13:31 46.37374 22.41322 32013 ft 467 kts 173°
2026-04-21 13:32 46.31047 22.43199 32028 ft 467 kts 173°
2026-04-21 13:32 46.24649 22.45097 32018 ft 466 kts 173°
2026-04-21 13:33 46.18343 22.46950 31988 ft 466 kts 173°
2026-04-21 13:33 46.11984 22.48811 31995 ft 466 kts 174°
2026-04-21 13:34 46.05625 22.50674 32004 ft 466 kts 174°
2026-04-21 13:34 45.99267 22.52539 32007 ft 466 kts 174°
2026-04-21 13:35 45.92917 22.54393 31977 ft 466 kts 175°
2026-04-21 13:35 45.86567 22.56241 31983 ft 466 kts 175°
2026-04-21 13:36 45.80200 22.58085 31997 ft 466 kts 175°
2026-04-21 13:36 45.73844 22.59920 32004 ft 465 kts 175°
2026-04-21 13:37 45.67498 22.61761 31980 ft 465 kts 175°
2026-04-21 13:37 45.61144 22.63604 31989 ft 465 kts 176°
2026-04-21 13:38 45.54835 22.65420 31990 ft 465 kts 176°
2026-04-21 13:38 45.48488 22.67232 31965 ft 465 kts 176°
2026-04-21 13:39 45.42143 22.69046 31977 ft 466 kts 177°
2026-04-21 13:39 45.35784 22.70858 31984 ft 465 kts 177°
2026-04-21 13:40 45.29427 22.72674 31981 ft 465 kts 177°
2026-04-21 13:40 45.23080 22.74483 31944 ft 465 kts 178°
2026-04-21 13:41 45.16728 22.76291 31936 ft 465 kts 178°
2026-04-21 13:41 45.10379 22.78083 31941 ft 466 kts 178°
2026-04-21 13:42 45.04025 22.79864 31896 ft 466 kts 178°
2026-04-21 13:42 44.97670 22.81665 31917 ft 466 kts 178°
2026-04-21 13:43 44.91309 22.83462 31928 ft 466 kts 178°
2026-04-21 13:43 44.84987 22.85294 31930 ft 468 kts 176°
2026-04-21 13:44 44.78654 22.87680 31926 ft 473 kts 173°
2026-04-21 13:44 44.72350 22.90363 31932 ft 474 kts 172°
2026-04-21 13:45 44.66030 22.92970 31939 ft 472 kts 173°
2026-04-21 13:45 44.59712 22.95446 31902 ft 471 kts 173°
2026-04-21 13:46 44.53380 22.97893 31920 ft 471 kts 173°
2026-04-21 13:46 44.47066 23.00356 31931 ft 471 kts 173°
2026-04-21 13:47 44.40745 23.02825 31959 ft 471 kts 173°
2026-04-21 13:47 44.34425 23.05292 31970 ft 471 kts 173°
2026-04-21 13:48 44.28112 23.07749 31970 ft 470 kts 173°
2026-04-21 13:48 44.21819 23.10195 31972 ft 470 kts 173°
2026-04-21 13:49 44.15510 23.12639 31935 ft 470 kts 173°
2026-04-21 13:49 44.09210 23.15065 31954 ft 470 kts 173°
2026-04-21 13:50 44.02953 23.17472 31969 ft 470 kts 173°
2026-04-21 13:50 43.96650 23.19898 31975 ft 470 kts 173°
2026-04-21 13:51 43.90355 23.22313 31957 ft 470 kts 172°
2026-04-21 13:51 43.84051 23.24727 31974 ft 470 kts 172°
2026-04-21 13:52 43.77744 23.27088 31984 ft 469 kts 173°
2026-04-21 13:52 43.71418 23.29394 31969 ft 469 kts 173°
2026-04-21 13:53 43.65112 23.31692 32001 ft 468 kts 172°
2026-04-21 13:53 43.58817 23.34006 32010 ft 468 kts 172°
2026-04-21 13:54 43.52529 23.36315 32019 ft 468 kts 173°
2026-04-21 13:54 43.46273 23.38585 32001 ft 467 kts 172°
2026-04-21 13:55 43.39997 23.40863 32008 ft 466 kts 172°
2026-04-21 13:55 43.33734 23.43141 32021 ft 466 kts 172°
2026-04-21 13:56 43.27453 23.45420 32010 ft 465 kts 172°
2026-04-21 13:56 43.21189 23.47684 32026 ft 465 kts 172°
2026-04-21 13:57 43.14945 23.49935 32029 ft 465 kts 172°
2026-04-21 13:57 43.08684 23.52199 32011 ft 465 kts 172°
2026-04-21 13:58 43.02473 23.54427 32036 ft 463 kts 172°
2026-04-21 13:58 42.96241 23.56660 32040 ft 463 kts 172°
2026-04-21 13:59 42.90029 23.58885 32041 ft 462 kts 172°
2026-04-21 13:59 42.83792 23.61115 32025 ft 462 kts 172°
2026-04-21 14:00 42.77576 23.63330 32025 ft 462 kts 172°
2026-04-21 14:00 42.72418 23.65164 32018 ft 461 kts 172°
2026-04-21 14:01 42.66198 23.67366 31996 ft 461 kts 172°
2026-04-21 14:01 42.59987 23.69559 32001 ft 461 kts 172°
2026-04-21 14:02 42.53779 23.71841 32006 ft 463 kts 170°
2026-04-21 14:03 42.44540 23.75724 31969 ft 464 kts 169°
2026-04-21 14:03 42.38379 23.78335 31983 ft 464 kts 169°
2026-04-21 14:04 42.32239 23.80849 31985 ft 463 kts 170°
2026-04-21 14:04 42.26061 23.83342 31983 ft 464 kts 170°
2026-04-21 14:05 42.19876 23.85858 31976 ft 464 kts 169°
2026-04-21 14:05 42.13689 23.88383 31977 ft 465 kts 169°
2026-04-21 14:06 42.07497 23.90902 31978 ft 465 kts 169°
2026-04-21 14:06 42.01303 23.93410 31949 ft 465 kts 169°
2026-04-21 14:07 41.95107 23.95918 31947 ft 465 kts 169°
2026-04-21 14:07 41.88902 23.98427 31952 ft 465 kts 169°
2026-04-21 14:08 41.82704 24.00923 31924 ft 465 kts 169°
2026-04-21 14:08 41.76499 24.03419 31938 ft 465 kts 169°
2026-04-21 14:09 41.70294 24.05913 31942 ft 465 kts 169°
2026-04-21 14:09 41.64088 24.08385 31947 ft 465 kts 169°
2026-04-21 14:10 41.57897 24.10859 31930 ft 465 kts 169°
2026-04-21 14:10 41.51728 24.13265 31941 ft 463 kts 171°
2026-04-21 14:11 41.45495 24.15370 31937 ft 461 kts 173°
2026-04-21 14:11 41.39259 24.17353 31930 ft 460 kts 172°
2026-04-21 14:12 41.33000 24.19405 31936 ft 461 kts 172°
2026-04-21 14:12 41.26785 24.21494 31934 ft 460 kts 172°
2026-04-21 14:13 41.20570 24.23589 31935 ft 461 kts 172°
2026-04-21 14:13 41.14383 24.25656 31923 ft 460 kts 172°
2026-04-21 14:14 41.08181 24.27710 31922 ft 461 kts 172°
2026-04-21 14:14 41.01946 24.29780 31931 ft 461 kts 172°
2026-04-21 14:15 40.95733 24.31838 31907 ft 461 kts 172°
2026-04-21 14:15 40.89510 24.33893 31920 ft 461 kts 172°
2026-04-21 14:16 40.83278 24.35941 31923 ft 461 kts 172°
2026-04-21 14:16 40.77048 24.37990 31927 ft 461 kts 172°
2026-04-21 14:17 40.70811 24.40045 31907 ft 462 kts 172°
2026-04-21 14:17 40.64560 24.42106 31912 ft 463 kts 172°
2026-04-21 14:18 40.58360 24.44128 31920 ft 463 kts 172°
2026-04-21 14:18 40.52098 24.46170 31905 ft 463 kts 172°
2026-04-21 14:19 40.45847 24.48202 31911 ft 463 kts 172°
2026-04-21 14:19 40.39570 24.50249 31916 ft 464 kts 172°
2026-04-21 14:20 40.33308 24.52292 31916 ft 464 kts 172°
2026-04-21 14:20 40.27038 24.54328 31906 ft 464 kts 172°
2026-04-21 14:21 40.20772 24.56349 31913 ft 464 kts 172°
2026-04-21 14:21 40.14500 24.58369 31916 ft 464 kts 172°
2026-04-21 14:22 40.08235 24.60390 31919 ft 464 kts 172°
2026-04-21 14:22 40.01969 24.62409 31917 ft 464 kts 172°
2026-04-21 14:23 39.95706 24.64422 31917 ft 464 kts 172°
2026-04-21 14:23 39.89443 24.66424 31893 ft 464 kts 172°
2026-04-21 14:24 39.83211 24.68420 31900 ft 464 kts 172°
2026-04-21 14:24 39.76935 24.70423 31911 ft 465 kts 172°
2026-04-21 14:25 39.70657 24.72430 31915 ft 465 kts 172°
2026-04-21 14:25 39.64372 24.74433 31910 ft 464 kts 172°
2026-04-21 14:26 39.58095 24.76426 31924 ft 464 kts 172°
2026-04-21 14:26 39.51816 24.78405 31928 ft 464 kts 172°
2026-04-21 14:27 39.45539 24.80397 31928 ft 464 kts 172°
2026-04-21 14:27 39.39294 24.82377 31906 ft 464 kts 172°
2026-04-21 14:28 39.33015 24.84357 31914 ft 464 kts 172°
2026-04-21 14:28 39.26736 24.86325 31917 ft 464 kts 172°
2026-04-21 14:29 39.20460 24.88299 31910 ft 464 kts 172°
2026-04-21 14:29 39.14184 24.90224 31916 ft 461 kts 176°
2026-04-21 14:30 39.07948 24.90439 31919 ft 445 kts 194°
2026-04-21 14:30 39.02034 24.88508 31890 ft 437 kts 203°
2026-04-21 14:31 38.96180 24.86243 31902 ft 437 kts 203°
2026-04-21 14:31 38.90378 24.84023 31912 ft 437 kts 203°
2026-04-21 14:32 38.84557 24.81782 31916 ft 437 kts 203°
2026-04-21 14:32 38.78716 24.79545 31905 ft 438 kts 203°
2026-04-21 14:33 38.72885 24.77320 31913 ft 438 kts 203°
2026-04-21 14:33 38.67039 24.75078 31925 ft 438 kts 203°
2026-04-21 14:34 38.61196 24.72846 31906 ft 439 kts 203°
2026-04-21 14:34 38.55367 24.70632 31914 ft 439 kts 203°
2026-04-21 14:35 38.49511 24.68407 31922 ft 439 kts 203°
2026-04-21 14:35 38.43659 24.66174 31911 ft 439 kts 203°
2026-04-21 14:36 38.37790 24.63939 31912 ft 439 kts 203°
2026-04-21 14:36 38.31934 24.61724 31922 ft 439 kts 203°
2026-04-21 14:37 38.26106 24.59528 31923 ft 439 kts 203°
2026-04-21 14:37 38.20212 24.57469 31907 ft 444 kts 195°
2026-04-21 14:38 38.13907 24.57501 31912 ft 460 kts 174°
2026-04-21 14:38 38.07778 24.59875 31914 ft 466 kts 166°
2026-04-21 14:39 38.01615 24.62496 31928 ft 467 kts 166°
2026-04-21 14:39 38.00586 24.62930 31929 ft 467 kts 166°